Stations météo

Publicité
Edinburgh/Gogarbank, Grande-Bretagne (3166): Température de l'air & dewpoint: 21.10.2020 18:00:00 - 27.10.2020 18:00:00 (GMT)Edinburgh/Gogarbank, Grande-Bretagne (3166): Température de l'air -20cm & Température de l'air -100cm: 21.10.2020 18:00:00 - 27.10.2020 18:00:00 (GMT)Edinburgh/Gogarbank, Grande-Bretagne (3166): Vitesse du vent & gusts: 21.10.2020 18:00:00 - 27.10.2020 18:00:00 (GMT)Edinburgh/Gogarbank, Grande-Bretagne (3166): Direction du vent: 21.10.2020 18:00:00 - 27.10.2020 18:00:00 (GMT)Edinburgh/Gogarbank, Grande-Bretagne (3166): reduced air pressure: 21.10.2020 18:00:00 - 27.10.2020 18:00:00 (GMT)Edinburgh/Gogarbank, Grande-Bretagne (3166): visibility: 21.10.2020 18:00:00 - 27.10.2020 18:00:00 (GMT)Edinburgh/Gogarbank, Grande-Bretagne (3166): Ensoleillement: 21.10.2020 18:00:00 - 27.10.2020 18:00:00 (GMT)Edinburgh/Gogarbank, Grande-Bretagne (3166): Quantités de précipitations: 21.10.2020 18:00:00 - 27.10.2020 18:00:00 (GMT)
Date & Time tt [°C] td [°C] tt -20cm [°C] tt -100cm [°C] ff [km/h] ff [knt] fx [km/h] fx [knt] dd ppp [hPa] vv [km] sd [min] rr [mm]
27.10.2020 18:00:00 7,9 5,9 - - 28 15 48 26 WSW 984,2 45 0 0,6
27.10.2020 17:00:00 8,4 7,2 - - 22 12 - - SW 983,6 8 0 1,8
27.10.2020 16:00:00 8,7 8,0 - - 8 4 - - E 983,5 8 0 3,4
27.10.2020 15:00:00 9,0 7,8 - - 9 5 - - E 984,0 8 0 2,0
27.10.2020 14:00:00 9,5 7,4 - - 15 8 - - ESE 984,8 45 0 0,6
27.10.2020 13:00:00 9,9 6,6 - - 13 7 - - SE 986,0 50 0 0,0
27.10.2020 12:00:00 9,8 6,9 - - 11 6 - - ESE 987,5 40 0 0,0
27.10.2020 11:00:00 9,3 5,4 - - 9 5 - - ESE 988,7 35 0 0,0
27.10.2020 10:00:00 8,6 5,2 - - 5 3 - - SE 989,6 40 0 0,0
27.10.2020 09:00:00 7,3 4,6 10,2 11,2 4 2 - - SW 990,4 35 0 0,0
27.10.2020 08:00:00 6,9 4,6 - - 4 2 - - SSW 991,0 45 0 0,0
27.10.2020 07:00:00 7,1 5,2 - - 8 4 - - WSW 991,2 40 0 0,0
27.10.2020 06:00:00 6,5 5,5 - - 8 4 - - SW 991,6 35 0 0,0
27.10.2020 05:00:00 5,8 4,9 - - 9 5 - - SW 991,8 22 0 0,0
27.10.2020 04:00:00 6,9 5,2 - - 11 6 - - SW 991,9 23 0 0,0
27.10.2020 03:00:00 7,4 5,7 - - 16 9 - - WSW 991,8 19 0 0,0
27.10.2020 02:00:00 7,8 6,0 - - 16 9 - - WSW 992,3 16 0 0,0
27.10.2020 01:00:00 8,5 6,3 - - 21 11 - - WSW 992,2 19 0 0,0
27.10.2020 00:00:00 8,5 6,3 - - 21 11 - - WSW 992,2 22 - 0,0
26.10.2020 23:00:00 8,3 6,2 - - 22 12 - - WSW 992,2 26 0 0,0
26.10.2020 22:00:00 8,3 6,2 - - 16 9 - - WSW 991,9 28 0 0,0
26.10.2020 21:00:00 8,5 6,4 - - 21 11 - - WSW 991,4 40 0 0,0
26.10.2020 20:00:00 8,9 6,4 - - 21 11 - - W 990,8 45 0 0,0
26.10.2020 19:00:00 9,2 6,6 - - 18 10 - - W 990,5 50 0 0,0
26.10.2020 18:00:00 9,4 6,7 - - 18 10 - - WSW 989,6 50 0 0,0
26.10.2020 17:00:00 9,8 6,9 - - 28 15 - - W 988,6 50 6 0,0
26.10.2020 16:00:00 11,1 7,3 - - 22 12 - - W 987,8 45 6 0,0
26.10.2020 15:00:00 11,3 7,3 - - 26 14 - - W 987,0 45 36 0,0
26.10.2020 14:00:00 11,0 7,0 - - 26 14 - - W 986,5 45 18 0,0
26.10.2020 13:00:00 10,8 7,1 - - 22 12 - - W 986,1 45 0 0,0
26.10.2020 12:00:00 10,8 7,1 - - 28 15 - - W 985,4 40 0 0,0
26.10.2020 11:00:00 9,8 7,7 - - 24 13 - - WSW 984,8 18 18 0,0
26.10.2020 10:00:00 10,5 7,8 - - 22 12 - - WSW 984,5 35 24 0,0
26.10.2020 09:00:00 9,1 7,2 10,2 11,2 15 8 - - SW 984,6 50 0 0,0
26.10.2020 08:00:00 8,8 6,9 - - 15 8 - - SSW 984,3 45 0 0,0
26.10.2020 07:00:00 8,5 6,3 - - 16 9 - - SSW 983,6 50 0 0,0
26.10.2020 06:00:00 8,2 5,8 - - 13 7 - - SSW 983,2 45 0 0,0
26.10.2020 05:00:00 8,4 6,0 - - 18 10 - - SSW 983,2 50 0 0,0
26.10.2020 04:00:00 8,7 6,3 - - 16 9 - - SSW 983,1 40 0 0,2
26.10.2020 03:00:00 8,8 6,5 - - 15 8 - - SSW 983,4 25 0 0,0
26.10.2020 02:00:00 8,9 6,2 - - 16 9 - - SSW 983,7 12 0 0,0
26.10.2020 01:00:00 9,3 5,5 - - 13 7 - - SSW 983,9 20 0 0,0
26.10.2020 00:00:00 9,4 5,5 - - 18 10 - - SSW 984,1 26 - 0,0
25.10.2020 23:00:00 9,0 5,2 - - 16 9 - - S 984,5 30 0 0,0
25.10.2020 22:00:00 9,0 5,2 - - 15 8 - - SSW 984,7 30 0 0,0
25.10.2020 21:00:00 9,1 5,0 - - 16 9 - - S 984,8 50 0 0,0
25.10.2020 20:00:00 8,8 5,0 - - 16 9 - - S 984,7 29 0 0,0
25.10.2020 19:00:00 9,3 4,7 - - 21 11 - - SSW 984,8 40 0 0,0
25.10.2020 18:00:00 9,6 5,1 - - 24 13 50 27 SSW 984,7 26 0 0,0
25.10.2020 17:00:00 9,8 4,9 - - 18 10 46 25 SSW 984,7 30 0 0,0
25.10.2020 16:00:00 10,0 4,8 - - 21 11 48 26 SSW 984,5 30 30 0,0
25.10.2020 15:00:00 10,9 4,4 - - 31 17 57 31 SW 984,0 35 48 0,0
25.10.2020 14:00:00 10,7 4,6 - - 31 17 55 30 SW 983,6 35 6 0,0
25.10.2020 13:00:00 10,4 4,5 - - 34 18 54 29 SW 984,1 30 36 0,0
25.10.2020 12:00:00 10,6 4,9 - - 26 14 55 30 SW 983,8 35 48 0,0
25.10.2020 11:00:00 9,8 4,1 - - 29 16 50 27 SW 983,9 50 60 0,0
25.10.2020 10:00:00 8,3 4,3 - - 16 9 - - SSW 983,8 50 18 0,0
25.10.2020 09:00:00 9,1 4,8 10,4 11,4 16 9 - - SSW 983,3 30 36 0,0
25.10.2020 08:00:00 7,4 4,2 - - 8 4 - - S 983,0 50 0 0,0
25.10.2020 07:00:00 8,0 4,9 - - 15 8 - - S 982,8 50 0 0,2
25.10.2020 06:00:00 8,1 5,1 - - 11 6 - - S 982,8 26 0 0,0
25.10.2020 05:00:00 7,7 4,4 - - 11 6 - - S 983,0 35 0 0,0
25.10.2020 04:00:00 8,0 4,2 - - 15 8 - - SSW 983,2 40 0 0,0
25.10.2020 03:00:00 7,3 3,9 - - 11 6 - - S 983,6 25 0 0,0
25.10.2020 02:00:00 7,2 3,7 - - 11 6 - - SSW 984,3 30 0 0,0
25.10.2020 01:00:00 7,4 3,5 - - 11 6 - - SSW 984,7 40 0 0,0
25.10.2020 00:00:00 - - - - - - - - - - - - -
24.10.2020 23:00:00 7,0 3,7 - - 11 6 - - SSW 985,1 40 0 0,0
24.10.2020 22:00:00 7,1 4,0 - - 11 6 - - SSW 985,4 50 0 0,0
24.10.2020 21:00:00 7,8 4,3 - - 15 8 - - SSW 985,3 50 0 0,0
24.10.2020 20:00:00 8,5 4,9 - - 18 10 - - SSW 985,3 35 0 0,0
24.10.2020 19:00:00 9,3 5,6 - - 9 5 - - SSW 985,7 25 0 0,0
24.10.2020 18:00:00 9,6 5,4 - - 8 4 - - S 986,1 19 0 0,0
24.10.2020 17:00:00 9,6 5,3 - - 13 7 - - SSW 986,5 20 0 0,0
24.10.2020 16:00:00 10,1 5,7 - - 9 5 - - SSW 986,9 16 0 0,0
24.10.2020 15:00:00 10,4 5,4 - - 16 9 - - SW 987,7 19 0 0,0
24.10.2020 14:00:00 10,8 6,2 - - 22 12 - - SW 988,3 24 0 0,0
24.10.2020 13:00:00 10,6 6,3 - - 24 13 - - SW 988,7 25 0 0,0
24.10.2020 12:00:00 10,3 6,7 - - 21 11 - - SSW 988,7 21 0 0,0
24.10.2020 11:00:00 9,7 6,3 - - 21 11 - - SSW 988,6 45 0 0,0
24.10.2020 10:00:00 8,8 5,7 - - 24 13 - - SW 987,9 35 0 0,2
24.10.2020 09:00:00 7,8 6,1 10,7 11,5 22 12 65 35 SW 988,2 11 0 4,4
24.10.2020 08:00:00 11,3 9,4 - - 22 12 57 31 SSW 985,8 6 0 0,2
24.10.2020 07:00:00 11,0 7,7 - - 28 15 57 31 S 985,6 50 0 0,0
24.10.2020 06:00:00 10,7 7,3 - - 24 13 54 29 S 988,0 50 0 0,0
24.10.2020 05:00:00 10,8 7,1 - - 26 14 50 27 S 989,3 50 0 0,0
24.10.2020 04:00:00 10,5 7,0 - - 22 12 - - S 991,4 30 0 0,0
24.10.2020 03:00:00 9,9 5,8 - - 18 10 - - S 993,5 24 0 0,0
24.10.2020 02:00:00 9,0 4,9 - - 11 6 - - S 995,1 26 0 0,0
24.10.2020 01:00:00 8,2 4,4 - - 11 6 - - S 997,2 30 0 0,0
24.10.2020 00:00:00 7,7 4,4 - - 11 6 - - S 998,7 30 - 0,0
23.10.2020 23:00:00 7,1 3,6 - - 9 5 - - S 999,7 40 0 0,0
23.10.2020 22:00:00 7,2 3,6 - - 13 7 - - SSW 1000,3 45 0 0,0
23.10.2020 21:00:00 6,5 3,7 - - 9 5 - - SSW 1000,9 40 0 0,0
23.10.2020 20:00:00 7,0 4,7 - - 11 6 - - SSW 1001,5 45 0 0,0
23.10.2020 19:00:00 6,5 4,3 - - 11 6 - - WSW 1001,8 45 0 0,0
23.10.2020 18:00:00 7,5 4,9 - - 13 7 - - WSW 1001,6 19 0 0,0
23.10.2020 17:00:00 7,5 4,8 - - 2 1 - - WSW 1000,9 45 0 0,0
23.10.2020 16:00:00 8,4 4,8 - - 21 11 - - W 1000,7 30 0 0,2
23.10.2020 15:00:00 9,8 5,0 - - 18 10 - - WSW 1000,2 50 18 0,0
23.10.2020 14:00:00 10,7 5,4 - - 21 11 - - W 999,9 35 60 0,0
23.10.2020 13:00:00 9,5 4,7 - - 18 10 - - WSW 999,7 40 30 0,0
23.10.2020 12:00:00 9,1 6,2 - - 11 6 - - WSW 999,6 35 0 0,0
23.10.2020 11:00:00 8,4 5,7 - - 18 10 - - W 999,2 16 6 0,0
23.10.2020 10:00:00 8,8 7,8 - - 15 8 - - WSW 998,8 2,4 0 0,2
23.10.2020 09:00:00 8,7 6,7 11,2 11,5 15 8 - - SW 998,6 11 0 0,2
23.10.2020 08:00:00 8,7 5,7 - - 15 8 - - SSW 999,0 28 0 0,0
23.10.2020 07:00:00 8,5 5,6 - - 13 7 - - SSW 999,3 29 0 0,0
23.10.2020 06:00:00 8,1 4,7 - - 15 8 - - SSW 999,7 35 0 0,0
23.10.2020 05:00:00 7,8 5,0 - - 8 4 - - S 1000,5 40 0 0,2
23.10.2020 04:00:00 7,9 4,6 - - 8 4 - - SSW 1001,1 24 0 0,0
23.10.2020 03:00:00 8,0 4,1 - - 13 7 - - SSW 1001,5 50 0 0,0
23.10.2020 02:00:00 7,7 4,0 - - 9 5 - - SSW 1002,4 45 0 0,0
23.10.2020 01:00:00 7,6 3,8 - - 9 5 - - SSW 1002,9 50 0 0,0
23.10.2020 00:00:00 7,4 3,6 - - 8 4 - - SSW 1003,5 45 - 0,0
22.10.2020 23:00:00 8,1 4,5 - - 13 7 - - SSW 1003,9 50 0 0,0
22.10.2020 22:00:00 8,0 6,1 - - 11 6 - - SW 1004,1 40 0 0,0
22.10.2020 21:00:00 7,7 5,7 - - 9 5 - - SW 1004,5 45 0 0,0
22.10.2020 20:00:00 8,0 6,2 - - 13 7 - - SW 1004,3 50 0 0,0
22.10.2020 19:00:00 8,5 7,3 - - 15 8 - - WSW 1004,1 45 0 0,0
22.10.2020 18:00:00 9,5 9,2 - - 9 5 - - SW 1003,6 35 0 0,0
22.10.2020 17:00:00 9,3 8,9 - - 0 0 - - N 1003,2 10 0 0,8
22.10.2020 16:00:00 9,2 8,6 - - 2 1 - - WSW 1002,8 4,1 0 0,8
22.10.2020 15:00:00 10,0 8,9 - - 5 3 - - SW 1002,3 3,8 0 0,0
22.10.2020 14:00:00 10,5 8,4 - - 11 6 - - SW 1002,0 11 0 0,0
22.10.2020 13:00:00 11,1 6,7 - - 9 5 - - NNW 1001,6 50 0 0,0
22.10.2020 12:00:00 11,5 7,4 - - 9 5 - - WNW 1001,2 50 0 0,0
22.10.2020 11:00:00 11,3 8,3 - - 9 5 - - W 1000,7 50 0 0,0
22.10.2020 10:00:00 10,8 8,6 - - 9 5 - - WSW 999,9 50 0 0,0
22.10.2020 09:00:00 10,3 8,5 11,4 11,5 9 5 - - W 999,1 50 0 0,0
22.10.2020 08:00:00 9,8 8,7 - - 11 6 - - W 998,0 45 0 0,0
22.10.2020 07:00:00 9,5 8,7 - - 13 7 - - W 996,7 45 0 0,0
22.10.2020 06:00:00 9,1 8,3 - - 16 9 - - SW 995,8 50 0 0,0
22.10.2020 05:00:00 9,3 8,2 - - 16 9 - - WSW 995,3 50 0 0,0
22.10.2020 04:00:00 8,9 7,8 - - 13 7 - - SW 994,6 50 0 0,0
22.10.2020 03:00:00 9,0 7,9 - - 8 4 - - WSW 994,8 50 0 0,0
22.10.2020 02:00:00 9,1 7,6 - - 9 5 - - W 994,5 50 0 0,0
22.10.2020 01:00:00 8,4 7,4 - - 4 2 - - WSW 994,3 50 0 0,0
22.10.2020 00:00:00 8,9 7,8 - - 8 4 - - SW 994,1 50 - 0,0
21.10.2020 23:00:00 8,0 6,3 - - 4 2 - - S 993,6 50 0 0,0
21.10.2020 22:00:00 10,1 8,8 - - 4 2 - - S 993,5 45 0 0,0
21.10.2020 21:00:00 10,9 10,5 - - 2 1 - - E 993,1 17 0 0,0
21.10.2020 20:00:00 11,2 10,5 - - 2 1 - - SSE 992,6 50 0 0,4
21.10.2020 19:00:00 11,9 10,3 - - 4 2 - - WSW 992,4 7 0 0,0
21.10.2020 18:00:00 12,9 9,6 - - 5 3 - - SW 991,6 50 0 0,0

tt = Température de l'air
td = dewpoint
tt -20cm = Température de l'air -20cm
tt -100cm = Température de l'air -100cm
ff = Vitesse du vent
fx = gusts
dd = Direction du vent
ppp = reduced air pressure
vv = visibility
sd = Ensoleillement
rr = Quantités de précipitations

stations d'obs. à proximité